Location: Eekwerd
(53.3234°N, 6.7984°E)
Time: 19:50:32
(UTC+00:00)

Okean O Rocket - Pass Details

Date: 15 May 2026
Orbit: 614 x 633 km, 98.0° (Epoch: 6 June)

Event Time Altitude Azimuth Distance (km) Brightness Sun altitude
Exits shadow 21:29:46 - 210° (SSW) 2,708 4.5 -13.2°
Reaches altitude 10° 21:32:05 10° 227° (SW) 1,974 4.0 -13.4°
Maximum altitude 21:35:02 18° 270° (W) 1,525 3.9 -13.6°
Drops below altitude 10° 21:38:00 10° 314° (NW) 1,986 5.4 -13.8°
Sets 21:40:50 0° 334° (NNW) 2,900 7.0 -14.0°
